Regional Weather Roundup
Issued by NWS

Home | Current Version | Previous Version | Text Only | Print | Product List | Glossary Off
Versions: 1 2 3 4 5 6 7 8 9 10 11 12 13 14 15 16 17 18 19 20 21 22 23 24 25 26 27 28 29 30 31 32 33 34 35 36 37 38 39 40 41 42 43 44 45 46 47 48 49 50

000
ASUS43 KMPX 230001
RWRMN
WEATHER ROUNDUP FOR MINNESOTA
NATIONAL WEATHER SERVICE TWIN CITIES/CHANHASSEN MN
700 PM CDT MON MAY 22 2017


NOTE: "FAIR" INDICATES FEW OR NO CLOUDS BELOW 12,000 FEET WITH NO
SIGNIFICANT WEATHER AND/OR OBSTRUCTIONS TO VISIBILITY. N/A MEANS
CURRENT SKY AND/OR WEATHER CONDITIONS ARE NOT AVAILABLE.

MNZ060>063-068>070-230100-
   Twin Cities Metro

CITY           SKY/WX    TMP DP  RH WIND       PRES   REMARKS
TWIN CITIES    MOSUNNY   63  41  44 N9        29.81S
6HR MIN TEMP:  62; 6HR MAX TEMP:  67;

ST PAUL        SUNNY     63  43  48 NW13      29.82R
CRYSTAL        SUNNY     62  39  42 NW13      29.80F
BLAINE         PTSUNNY   63  43  48 NW9       29.81F
LAKEVILLE      PTSUNNY   61  45  55 NW9       29.81S
EDEN PRAIRIE   PTSUNNY   64  43  46 NW10      29.81R
6HR MIN TEMP:  62; 6HR MAX TEMP:  67;

SOUTH ST PAUL  PTSUNNY   63  42  46 N12       29.80S
LAKE ELMO      FAIR      61  43  51 W10       29.82S
$$
MNZ001>005-007-008-013>017-022>024-027-028-230100-
   Northwest Minnesota

CITY           SKY/WX    TMP DP  RH WIND       PRES   REMARKS
BEMIDJI        LGT RAIN  45  43  92 NW7       29.84S
HALLOCK        CLOUDY    52  46  82 N13G23    29.88R
ROSEAU         DRIZZLE   52  45  76 N8        29.85S
WARROAD        CLOUDY    50  46  87 N7        29.86R
CROOKSTON      CLOUDY    48  46  93 N8        29.87S
FOSSTON        CLOUDY    50  45  81 N7        29.86S
DETROIT LAKES  CLOUDY    50  43  76 NW13      29.86S
MOORHEAD       CLOUDY    52  43  71 N16       29.88F
PARK RAPIDS    CLOUDY    50  41  71 NW9       29.83R
MAHNOMEN       DRIZZLE   47  44  87 NW15      29.86R
$$
MNZ006-009>011-018-025>026-230100-
   North Central Minnesota

CITY           SKY/WX    TMP DP  RH WIND       PRES   REMARKS
BAUDETTE       CLOUDY    48  46  93 N7        29.83R
FLAG ISLAND    LGT RAIN  48  45  87 N17       29.85R
INTL FALLS     CLOUDY    50  42  74 NW7       29.80S
6HR MIN TEMP:  47; 6HR MAX TEMP:  50; 6HR PCP:  0.05;

WASKISH        CLOUDY    48  45  87 NW6       29.83R
BIG FORK       LGT RAIN  46  43  87 NW3       29.82R
LONGVILLE      CLOUDY    48  43  81 NW5       29.83R
GRAND RAPIDS   LGT RAIN  49  44  83 W5        29.83R
CRANE LAKE     CLOUDY    48  43  81 NW3       29.81S
ORR            CLOUDY    46  43  87 NW3       29.78S
COOK           CLOUDY    48  41  76 NW5       29.81R
WALKER         CLOUDY    47  43  85 N5        29.83S
$$
MNZ012-019>021-037-230100-
   Northeast Minnesota

CITY           SKY/WX    TMP DP  RH WIND       PRES   REMARKS
DULUTH         CLOUDY    53  44  71 W10       29.80R
6HR MIN TEMP:  50; 6HR MAX TEMP:  54; 6HR PCP: TRACE;

ELY            CLOUDY    48  45  87 NW3       29.80R
HIBBING        CLOUDY    49  43  80 NW7       29.80R
EVELETH        CLOUDY    50  41  71 NW6       29.81R
DULUTH HARBOR  CLOUDY    55  46  71 SW6       29.81S
TWO HARBORS    CLOUDY    57  46  67 W7        29.77S
SILVER BAY     PTSUNNY   55  45  67 W3        29.77R
GRAND MARAIS     N/A     42  39  89 W5        29.78R
G MARAIS ARPRT CLOUDY    48  39  71 W3        29.78S
$$
MNZ029>031-032-039>041-046>048-054>057-064-230100-
   West Central Minnesota

CITY           SKY/WX    TMP DP  RH WIND       PRES   REMARKS
FERGUS FALLS   CLOUDY    54  43  66 N14G20    29.86S
WHEATON        CLOUDY    54  41  62 NW13G20   29.89F
MORRIS         PTSUNNY   55  45  67 N21       29.86R
ALEXANDRIA     CLOUDY    53  40  61 NW10      29.85S
ELBOW LAKE     CLOUDY    52  43  71 NW12      29.87S
WADENA         PTSUNNY   54  43  66 NW10G18   29.83S
GLENWOOD       PTSUNNY   54  41  62 NW14      29.85S
APPLETON       PTSUNNY   61  41  48 N22       29.85S
BENSON         MOSUNNY   61  39  44 N14G21    29.87R
ORTONVILLE     CLOUDY    55  43  62 N21G26    29.87R
MADISON        CLOUDY    63  46  55 N13G22    29.85S
WILLMAR        FAIR      61  45  55 N14G20    29.85S
$$
MNZ033>034-036-042>043-049>051-058-059-230100-
   Central Minnesota

CITY           SKY/WX    TMP DP  RH WIND       PRES   REMARKS
ST CLOUD       PTSUNNY   58  42  55 NW8       29.82S
6HR MIN TEMP:  57; 6HR MAX TEMP:  62;

SAUK CENTRE    MOCLDY    55  41  60 NW10      29.84R
PAYNESVILLE    MOSUNNY   58  42  55 N12       29.84S
AITKIN         CLOUDY    52  43  71 CALM      29.81S
PINE RIVER     LGT RAIN  48  43  81 NW7       29.86R
BRAINERD       CLOUDY    53  42  66 W5        29.82F
STAPLES        CLOUDY    52  41  66 W9        29.83S
LONG PRAIRIE   CLOUDY    52  41  66 W8        29.83F
LITTLE FALLS   PTSUNNY   54  37  54 NW6       29.83S
LITCHFIELD     SUNNY     61  45  55 N15       29.83S
BUFFALO        PTSUNNY   60  42  51 NW10      29.83S
MAPLE LAKE     MOSUNNY   61  44  54 NW9G16    29.83S
HUTCHINSON     CLOUDY    61  46  57 N15G21    29.83S
$$
MNZ037-044-045-052-053-230100-
   East Central Minnesota

CITY           SKY/WX    TMP DP  RH WIND       PRES   REMARKS
PRINCETON      CLOUDY    59  45  58 NW8       29.83S
MORA           PTSUNNY   54  41  62 N9        29.84S
CAMBRIDGE      CLOUDY    61  45  55 NW13      29.81S
RUSH CITY      CLOUDY    57  43  58 NW8       29.82S
MOOSE LAKE     CLOUDY    52  41  66 NW3       29.81S
HINCKLEY       CLOUDY    54  45  71 W5        29.83R
CLOQUET        CLOUDY    52  41  66 W5        29.81R
MCGREGOR       CLOUDY    50  43  76 W5        29.82S
$$
MNZ071>073-080-081-089-090-097-098-230100-
   Southwest Minnesota

CITY           SKY/WX    TMP DP  RH WIND       PRES   REMARKS
MONTEVIDEO     PTSUNNY   61  45  55 N14       29.84S
CANBY          CLOUDY    57  49  73 SW3       29.87R
MARSHALL       LGT RAIN  55  49  80 NW9       29.86R
REDWOOD FALLS  LGT RAIN  57  46  66 NW3       29.83S
OLIVIA         CLOUDY    59  43  55 N13       29.83R
PIPESTONE      LGT RAIN  52  43  71 N9G16     29.88S
WINDOM         LGT RAIN  54  52  94 NE6       29.85S
WORTHINGTON    PTSUNNY   57  50  77 NW17      29.85R
JACKSON        CLOUDY    54  50  87 NE10      29.84S
TRACY          RAIN      54  51  88 SW3       29.87R
SLAYTON        HVY RAIN  49  46  91 NW20G25   29.87R
$$
MNZ065>067-074>077-082>085-091>093-230100-
   South Central Minnesota

CITY           SKY/WX    TMP DP  RH WIND       PRES   REMARKS
NEW ULM        LGT RAIN  59  45  58 NW8       29.83R
ST JAMES       HVY RAIN  55  52  88 W6        29.85R
FAIRMONT       LGT RAIN  55  53  93 NE8       29.82S FOG
GLENCOE        PTSUNNY   62  47  58 NW7       29.82R
FARIBAULT      MOSUNNY   63  48  59 NW7       29.81F
OWATONNA       SUNNY     61  46  59 NW7       29.80F
WASECA         MOSUNNY   59  46  63 N9        29.81F
ALBERT LEA     MOSUNNY   64  48  55 N6        29.79S
$$
MNZ078>079-086>088-094>096-230100-
   Southeast Minnesota

CITY           SKY/WX    TMP DP  RH WIND       PRES   REMARKS
ROCHESTER      MOSUNNY   64  47  53 N8        29.80F
6HR MIN TEMP:  63; 6HR MAX TEMP:  67;

RED WING       PTSUNNY   64  43  45 W3        29.79S
STANTON        MOSUNNY   63  46  54 NW8       29.80R
DODGE CENTER   MOSUNNY   63  46  55 N7        29.80F
WINONA         SUNNY     68  46  45 NW6       29.79S
AUSTIN         SUNNY     63  46  55 N6        29.79S
PRESTON        SUNNY     65  47  51 CALM      29.80F THUNDER
$$
ABBREVIATIONS USED IN REMARKS
   TC - TEMPERATURES IN CELSIUS
  WCI - WIND CHILL INDEX
   HX - HEAT INDEX
  VSB - VISIBILITY
$$




USA.gov is the U.S. government's official web portal to all federal, state and local government web resources and services.